Location: M?digepalle
(16.1753°N, 80.3496°E)
Time: 08:02:54
(UTC+00:00)

Cosmos 1190 Rocket - Pass Details

Date: 29 October 2020
Orbit: 757 x 779 km, 74.1° (Epoch: 27 November)

Event Time Altitude Azimuth Distance (km) Brightness Sun altitude
Rises 23:41:44 0° 202° (SSW) 3,237 7.1 -13.3°
Reaches altitude 10° 23:44:09 10° 207° (SSW) 2,308 6.3 -12.8°
Maximum altitude 23:49:16 55° 284° (WNW) 917 4.1 -11.6°
Drops below altitude 10° 23:54:23 10° 2° (N) 2,297 6.4 -10.4°
Sets 23:56:48 0° 7° (N) 3,220 7.2 -9.8°
